Theta_e
303 303 304 303 304 304 304 305 305 304 303 298 295 295 293 294 291 303 306 310 310 302 291 292 291 291 292 298 298 299 297 296 296 295 296 293 295 296 293 293 291 293 291 292 290 291 289 291 289 292 293 295 295 296 297 297 296 292 287 290 290 306 278 279 280 284 286 288 290 292 293 291 287 286 288 286 285 284 280 278 279 279 281 280 279 275 278
303 303 303 303 304 304 304 305 305 304 303 299 296 291 292 293 294 297 306 310 309 298 285 286 285 289 294 295 294 297 295 295 293 293 294 292 295 294 294 293 294 292 294 292 291 294 284 292 291 289 294 292 300 298 297 299 295 295 292 286 291 283 282 280 276 273 277 282 285 285 288 288 284 284 285 288 288 288 287 285 282 279 282 282 277 273 280
303 303 303 303 304 304 304 305 304 304 304 303 294 291 294 293 297 297 302 304 306 294 293 289 282 289 291 291 291 294 293 295 295 293 293 295 293 293 292 293 293 293 295 292 292 292 289 286 293 292 292 292 298 298 297 300 296 300 303 306 294 284 284 279 273 271 270 270 270 274 277 280 282 286 286 287 288 287 282 278 278 277 282 283 277 278 283
303 303 303 303 304 304 304 304 304 303 304 304 296 294 293 292 283 289 294 297 301 299 302 295 292 287 287 284 286 293 290 293 296 295 295 296 294 293 294 295 294 291 291 289 290 289 292 290 288 289 289 291 295 295 297 298 298 305 308 301 294 284 285 280 276 276 275 277 281 286 287 282 278 283 284 285 287 286 283 278 275 278 279 277 280 284 284
303 303 303 303 304 304 304 304 303 303 303 304 295 293 294 294 286 284 284 292 293 293 295 294 293 287 292 283 290 289 290 292 293 297 292 295 294 293 293 292 290 288 289 287 287 289 289 292 291 290 292 293 293 295 296 299 304 306 301 300 287 283 281 285 282 282 282 285 286 287 287 284 284 283 283 284 284 285 282 278 280 281 276 274 280 284 281
303 303 303 303 304 304 304 304 303 303 303 304 295 287 289 285 288 292 293 287 284 287 289 294 293 294 294 288 292 289 288 289 286 294 296 296 295 288 290 291 291 290 290 288 282 286 287 289 285 291 291 291 292 290 292 292 301 299 293 297 288 282 280 286 286 285 285 285 286 287 286 285 285 284 284 284 284 284 281 283 285 282 277 276 282 284 283
303 303 303 303 303 304 304 304 303 302 302 302 291 285 286 288 288 291 295 288 293 292 294 295 295 290 293 288 290 287 288 287 290 289 291 292 290 291 281 287 289 289 290 287 283 285 280 280 287 287 287 288 287 286 289 292 292 290 288 290 288 283 279 286 286 285 286 286 286 286 285 284 285 284 284 285 284 284 283 284 284 284 282 282 284 284 283
303 303 303 303 304 304 304 304 304 302 301 300 292 288 284 283 283 285 291 292 292 295 295 294 290 288 292 285 289 288 288 287 290 291 289 283 288 293 288 288 288 288 288 286 283 284 286 286 282 288 287 285 287 285 287 285 289 290 290 291 290 285 282 290 285 279 284 286 286 286 285 284 282 285 286 285 284 285 284 284 283 284 283 282 282 282 282
303 303 303 303 303 304 304 304 303 302 301 295 292 289 290 288 290 291 287 286 290 291 290 289 288 286 288 286 288 289 288 288 291 289 293 289 287 289 287 289 287 288 287 286 285 287 287 287 287 289 289 284 291 286 286 289 286 288 287 288 288 286 283 286 282 277 279 284 284 284 284 284 283 283 284 284 282 281 282 281 284 280 280 280 282 279 278
303 303 303 303 303 304 304 304 304 302 301 295 292 290 294 291 292 294 288 282 288 285 288 288 287 283 288 289 288 287 288 290 290 283 291 292 292 290 290 289 286 284 285 284 286 288 289 289 290 290 291 293 291 290 290 289 288 286 286 287 284 282 280 279 278 275 274 282 283 282 280 278 275 277 283 285 283 284 284 284 285 284 282 279 277 277 284
302 302 302 303 303 303 304 304 304 303 299 294 293 292 293 290 288 289 286 281 282 283 283 284 285 288 290 290 289 290 288 290 291 285 285 292 291 292 290 289 285 282 284 287 291 292 292 292 292 292 292 291 292 291 289 290 289 289 286 284 284 284 280 279 279 274 272 280 280 278 275 269 269 280 287 287 283 283 281 280 282 284 284 281 283 284 286
302 302 303 303 303 303 304 304 304 304 301 297 295 292 294 294 291 289 282 281 279 283 283 281 284 287 287 288 289 287 287 287 288 293 288 290 291 292 289 288 286 280 289 292 292 292 293 294 293 291 291 290 290 291 291 289 289 288 287 286 282 282 281 279 278 274 275 276 275 271 268 268 281 286 287 288 286 285 283 283 284 284 285 284 283 284 284
302 302 302 303 303 303 303 304 304 304 303 299 295 292 296 296 292 288 283 280 280 281 280 282 286 287 288 287 286 286 287 288 290 291 292 290 289 290 289 288 286 289 293 290 290 290 287 285 284 284 286 287 287 287 287 287 287 288 286 287 283 279 280 277 279 273 274 272 268 266 264 279 285 285 286 289 287 284 283 282 283 284 284 284 282 283 284
303 302 302 302 302 303 303 304 304 304 304 302 295 294 296 295 291 287 284 281 281 282 282 282 285 285 286 286 286 286 287 287 288 289 288 291 289 288 290 290 290 291 292 293 289 287 281 280 278 278 279 281 280 282 285 287 287 287 287 286 286 284 280 279 277 277 272 268 270 271 277 279 280 279 282 283 281 282 279 274 278 284 283 283 283 283 284
302 302 302 302 302 303 303 303 304 304 304 303 295 294 295 295 294 291 290 283 282 283 283 280 282 285 286 286 286 284 283 283 284 284 288 291 289 291 290 292 292 291 291 289 283 284 281 279 276 274 276 276 271 275 284 284 286 287 287 286 287 285 282 279 278 275 274 271 271 270 269 268 272 281 285 287 287 287 285 279 278 284 284 285 283 282 283
302 302 302 302 302 302 303 303 304 304 304 303 297 293 295 296 295 294 290 285 280 279 281 286 287 286 283 284 286 284 281 279 282 281 283 286 287 290 292 293 292 291 291 288 286 283 281 279 277 271 271 273 279 278 276 281 282 286 288 288 287 285 284 281 281 275 274 271 267 266 265 267 276 280 284 287 286 287 284 277 276 282 283 284 284 282 283
302 302 302 302 302 302 303 303 304 304 304 303 295 293 293 298 295 292 289 286 281 280 286 289 288 286 283 282 285 284 284 281 281 279 279 280 285 288 290 292 290 290 288 283 281 281 281 279 280 279 277 281 277 275 280 279 278 279 285 286 285 283 280 279 276 274 273 271 269 270 273 273 282 284 284 286 286 286 279 271 270 282 283 284 283 283 283
301 302 302 302 302 302 303 303 304 304 304 304 298 292 294 298 297 294 291 285 280 281 284 289 287 282 281 282 281 286 286 283 283 281 280 283 284 285 287 288 285 288 289 281 280 280 279 278 275 277 275 285 284 282 271 280 277 278 279 281 279 280 279 279 275 274 277 276 271 274 277 283 286 284 285 285 286 280 271 267 273 282 283 283 283 283 283
302 302 302 302 302 302 303 304 304 304 304 303 298 294 293 297 297 295 290 285 281 280 285 290 291 288 289 290 286 288 288 286 284 279 280 280 281 288 288 289 288 280 285 279 280 278 277 277 281 280 277 279 282 276 281 277 277 282 281 279 280 280 279 279 278 274 275 274 274 273 276 283 287 287 286 285 281 271 269 280 286 284 284 285 284 283 283
301 302 302 302 302 303 303 304 304 304 304 303 299 291 294 297 296 295 291 284 283 281 285 288 289 287 290 286 284 282 283 284 283 280 279 278 285 287 282 280 284 284 281 281 277 279 276 274 276 279 274 277 279 285 278 278 282 279 280 281 278 279 277 276 276 277 275 273 273 273 269 280 290 288 284 284 275 276 282 284 285 285 284 284 284 284 284
301 301 302 302 302 303 303 304 304 304 304 304 300 292 292 296 298 296 295 290 281 280 282 288 291 288 289 288 289 289 285 283 282 280 283 282 286 280 272 275 279 280 278 278 274 275 277 274 276 276 279 278 280 280 276 278 281 284 284 281 279 282 276 276 277 280 274 273 272 273 278 282 286 284 276 280 282 284 284 283 282 284 284 284 283 284 284
301 301 301 302 302 303 304 304 304 304 304 304 301 293 289 295 298 297 297 292 283 283 285 289 292 291 292 291 290 291 291 290 292 289 284 283 285 284 283 284 283 282 283 282 277 275 278 278 278 274 272 275 279 275 278 272 272 279 284 283 274 282 279 280 275 280 276 275 278 282 283 284 285 285 284 284 285 286 286 284 285 283 284 285 283 284 285
301 301 301 302 302 303 303 304 304 304 304 304 300 293 290 294 295 298 292 286 286 285 288 287 289 290 292 293 293 294 294 295 293 290 288 283 281 283 283 282 282 287 286 283 279 279 279 279 273 278 274 276 275 273 275 274 272 276 275 282 280 283 283 283 281 278 283 284 284 286 284 285 285 285 285 285 285 286 286 285 283 284 285 285 284 285 284
301 301 301 301 302 303 303 304 304 304 304 304 301 291 292 293 295 293 290 285 284 283 283 285 281 281 284 287 290 290 292 292 294 293 293 288 281 280 281 285 288 285 281 285 283 282 279 278 280 278 273 278 277 272 270 270 272 277 274 275 279 281 280 278 275 281 278 274 282 281 282 284 285 286 287 287 287 287 287 286 286 286 285 285 286 285 285
300 301 301 301 302 302 303 304 304 304 304 304 300 298 296 293 293 293 286 282 283 282 279 281 282 289 291 291 290 289 291 293 296 294 293 290 287 282 282 286 288 285 284 286 284 282 280 276 277 274 272 280 278 271 277 273 273 277 270 273 276 276 281 276 278 275 272 274 280 282 284 284 285 284 284 285 286 287 287 287 287 286 287 287 287 286 286
300 300 300 301 301 302 303 304 303 303 303 304 302 292 292 292 293 292 290 287 283 281 281 280 283 290 291 290 289 290 293 292 290 292 293 292 291 289 287 289 288 290 287 287 282 281 280 278 276 276 274 276 280 274 276 278 277 278 278 274 279 279 280 273 278 276 277 278 280 282 282 283 284 285 285 285 284 285 285 285 285 286 286 285 285 286 286
300 300 301 301 301 302 303 303 303 302 302 303 300 294 294 294 293 293 289 288 283 281 280 280 281 287 290 288 292 291 292 291 290 289 290 291 294 292 289 288 286 285 285 281 282 281 280 279 277 277 278 277 281 280 279 276 278 275 273 277 280 278 276 278 275 269 269 274 278 280 273 273 281 282 283 284 286 286 285 285 285 285 285 285 284 285 286
300 300 301 301 301 302 303 303 303 302 302 303 300 296 294 293 292 293 293 292 285 281 280 279 280 286 288 288 292 289 290 290 289 289 288 289 291 290 287 286 285 284 282 280 280 279 278 275 277 278 277 278 277 274 278 277 277 273 276 278 280 277 279 275 269 269 270 276 280 281 279 278 280 282 284 285 286 286 286 285 285 285 285 284 284 283 283
300 301 301 301 302 302 302 303 303 302 302 301 294 294 294 295 293 295 295 296 291 284 283 282 282 282 279 283 290 288 289 291 289 288 288 288 289 288 286 287 285 283 282 279 280 279 279 278 279 279 278 280 276 273 275 270 270 271 277 280 281 283 282 280 280 277 279 281 282 283 281 280 282 284 285 286 286 286 285 286 285 285 285 284 284 283 282
301 301 301 301 302 302 302 303 303 302 301 294 291 288 284 288 291 293 295 297 293 289 282 279 279 280 285 288 287 289 290 290 290 290 289 287 287 285 285 285 285 287 283 281 280 278 279 280 278 280 284 283 276 273 269 273 271 276 283 285 286 285 284 283 282 281 281 285 284 283 283 284 284 285 286 286 287 287 285 285 285 284 285 285 283 283 283
301 301 301 301 302 302 302 302 303 303 299 291 285 280 279 278 283 293 297 295 294 289 283 284 281 281 282 286 288 286 289 290 288 288 288 287 286 286 287 286 284 285 281 281 281 280 279 276 278 279 283 284 281 273 273 272 271 276 281 284 284 283 283 283 284 284 284 284 285 285 284 284 284 284 284 284 285 285 283 284 286 289 286 285 284 284 284
301 301 301 302 302 302 302 303 303 302 293 290 285 284 281 283 286 294 298 298 294 289 283 280 278 278 278 281 285 290 289 290 290 288 285 287 286 285 285 286 282 285 285 279 280 279 279 277 277 279 280 283 282 273 276 272 269 275 281 282 283 283 283 283 284 284 284 285 283 281 280 281 282 282 283 285 284 284 284 285 286 286 288 287 286 285 284
301 301 301 302 302 302 303 303 303 301 294 295 299 300 300 300 300 299 298 294 291 286 284 280 277 279 278 280 286 289 291 286 283 284 284 284 285 283 282 284 284 284 293 283 278 277 277 277 277 276 279 282 276 276 276 269 273 278 280 283 282 283 284 284 283 283 283 283 283 280 279 280 282 284 285 285 284 285 285 286 286 287 286 285 285 284 284
301 301 302 302 302 303 302 303 303 301 297 292 289 289 294 299 298 300 295 293 289 286 283 280 277 276 277 281 281 284 290 282 281 281 279 284 285 282 280 281 281 281 280 278 281 279 279 278 278 276 280 277 276 273 271 274 278 281 281 282 282 282 282 282 282 282 283 283 283 283 284 283 284 284 284 283 283 284 285 286 286 284 284 285 284 284 284
301 301 302 302 302 303 303 302 293 292 288 288 290 291 293 301 299 300 297 290 280 281 280 280 280 276 276 276 277 280 288 284 279 280 280 282 285 282 281 280 280 277 280 283 278 276 277 279 277 277 272 276 275 273 271 277 280 280 281 282 282 281 281 281 282 282 283 282 283 284 283 283 283 281 282 283 282 283 284 285 286 285 284 283 283 283 283
301 302 302 303 303 302 295 296 291 290 287 288 289 297 304 304 303 296 293 294 288 278 278 278 279 276 275 272 270 278 288 281 283 282 282 280 280 283 281 278 275 278 281 278 274 278 276 281 279 273 271 273 271 274 275 279 280 281 281 281 281 281 282 281 281 282 282 283 283 283 283 282 282 282 284 284 283 282 283 283 284 284 282 280 280 280 281
302 302 303 302 297 292 288 287 293 293 290 293 296 302 303 302 297 296 293 291 292 290 281 276 278 277 278 274 277 281 283 276 281 279 279 279 279 278 279 277 273 279 278 276 276 275 277 282 275 272 273 271 270 277 280 282 282 281 281 282 283 282 282 281 282 282 281 281 283 281 281 281 282 283 283 282 281 281 281 281 281 280 279 279 279 280 282
303 303 293 289 288 284 284 287 291 294 301 299 300 292 288 291 283 283 286 284 286 292 282 282 277 277 280 279 275 283 283 277 279 278 277 281 278 278 279 277 277 278 270 271 273 280 277 277 274 272 270 275 278 280 281 281 281 282 283 283 282 282 282 282 282 282 281 280 280 281 280 281 281 282 281 280 280 280 279 281 281 280 280 282 281 283 283
299 293 289 289 286 283 284 288 297 302 297 295 292 285 282 284 281 281 280 282 282 281 280 280 278 279 279 279 278 284 283 278 275 277 275 280 278 274 277 270 276 276 271 271 272 280 272 270 272 273 270 275 279 281 283 283 283 284 284 283 283 282 281 282 282 281 280 279 281 280 280 279 279 281 281 280 280 280 280 280 280 280 281 282 282 284 284
291 287 284 283 283 284 292 296 300 295 292 285 284 282 279 282 279 277 282 279 279 280 280 278 280 279 281 279 278 277 284 280 275 274 274 276 281 275 277 276 277 275 267 268 271 278 272 269 268 269 267 273 277 282 281 283 283 283 283 283 283 282 282 283 283 282 283 282 282 282 280 280 281 281 281 280 280 278 278 279 280 280 280 282 283 283 283
287 287 283 282 285 288 290 293 293 290 286 281 280 280 279 277 280 280 280 277 275 278 280 279 281 281 282 281 280 277 284 285 281 280 278 276 280 280 274 270 277 272 268 268 274 277 273 271 268 270 266 274 280 281 281 281 283 282 282 283 283 283 282 283 284 284 285 284 284 284 283 283 283 282 282 281 281 279 278 277 280 281 281 282 283 284 284
289 288 288 292 291 292 291 288 286 283 282 283 277 274 277 277 279 280 279 274 274 277 280 280 277 278 280 282 281 281 281 286 281 279 277 273 279 277 271 274 276 268 266 268 275 275 272 267 266 266 266 276 280 281 280 281 282 282 282 283 283 282 282 283 284 284 285 285 285 283 282 282 282 281 281 281 281 280 279 279 280 280 281 283 284 285 284
299 298 296 291 289 284 285 282 283 281 274 275 272 271 275 274 276 274 275 279 280 279 279 286 283 284 285 285 283 283 281 285 281 279 276 273 279 278 274 272 270 267 268 274 274 269 268 266 266 268 275 280 282 281 281 281 282 282 283 283 282 283 284 284 284 284 284 285 284 283 283 283 282 282 282 282 280 280 279 279 280 280 280 281 282 283 283
293 292 287 284 282 282 283 275 283 281 277 277 272 269 271 271 271 276 276 276 280 281 283 282 281 280 276 282 280 281 281 283 284 280 279 280 277 273 272 269 268 270 275 271 270 268 265 267 271 274 277 280 283 281 281 281 281 281 282 282 282 282 283 282 282 282 283 283 282 282 283 282 282 281 281 280 280 281 280 280 280 280 281 281 281 281 282
285 281 282 281 279 281 278 269 279 277 271 273 277 273 275 273 274 277 279 284 285 283 285 284 281 280 279 282 281 281 281 278 282 276 273 276 271 273 271 267 271 274 270 266 266 266 268 269 272 276 279 281 283 282 281 281 282 283 282 281 282 283 283 283 282 282 282 283 283 282 282 282 282 281 280 280 279 280 279 279 280 280 280 281 280 281 281
282 281 280 275 271 275 277 273 276 273 278 280 277 278 278 279 281 282 286 287 285 284 284 284 284 283 281 281 278 277 280 280 276 277 279 277 272 270 273 276 275 269 267 268 266 264 266 272 273 275 279 282 281 281 282 281 283 282 283 283 283 283 283 283 282 282 283 282 282 282 283 282 282 281 281 281 280 280 279 280 279 280 280 279 281 281 281
283 284 283 280 274 277 280 273 273 277 279 279 280 281 281 283 285 286 287 287 285 286 286 284 283 281 279 279 279 278 279 280 275 279 278 273 273 276 280 271 267 267 266 262 262 262 265 272 273 276 279 280 280 280 280 280 280 281 283 284 284 284 283 284 283 283 283 283 283 283 283 283 283 282 281 281 280 280 280 280 280 280 279 280 281 281 281
281 284 281 272 270 277 275 276 280 280 280 281 280 281 282 284 283 283 286 288 287 286 286 283 281 280 279 280 279 275 276 279 274 275 277 275 278 274 271 272 270 270 267 264 265 267 272 276 278 280 281 282 282 280 279 279 279 280 282 284 284 284 284 284 284 284 283 283 283 283 284 283 283 282 281 280 279 280 280 280 280 280 280 280 280 280 281
284 281 278 276 278 279 277 278 279 278 280 281 280 280 281 282 282 284 287 287 287 287 286 284 282 281 276 279 277 276 275 278 273 274 279 276 272 269 268 265 265 264 266 269 272 272 275 280 282 281 282 283 281 280 279 279 280 280 283 284 284 285 285 285 285 285 284 284 284 284 284 284 283 283 281 281 280 281 281 280 280 280 279 279 279 279 279
283 281 282 279 277 277 279 278 278 277 278 278 278 279 280 280 280 283 285 285 285 285 284 284 283 280 279 279 274 275 273 276 276 277 274 270 271 272 271 266 266 266 264 268 271 275 279 283 283 283 283 283 283 283 282 281 281 280 281 283 284 285 286 286 286 286 286 285 285 285 285 284 283 283 281 281 281 280 280 280 280 279 279 279 279 279 279
286 282 280 281 278 276 277 273 271 273 277 278 278 279 280 280 280 281 283 285 284 283 283 280 281 279 277 277 274 270 272 278 275 272 270 269 273 273 271 270 268 270 273 276 278 278 279 280 281 282 283 284 285 284 284 283 282 282 282 283 283 284 285 286 287 287 286 286 286 285 285 285 285 285 284 282 281 280 280 280 280 279 278 278 279 279 278
283 280 279 282 283 282 281 280 278 279 280 281 281 282 282 280 280 284 285 284 283 281 279 281 280 278 276 273 274 275 278 275 273 274 272 272 275 271 270 272 273 274 278 280 283 284 285 284 283 282 282 283 284 284 284 283 283 283 282 283 283 283 283 284 286 286 287 287 286 286 286 285 284 285 282 280 279 279 280 279 279 278 279 279 279 278 278
Wind_Speed
28 28 27 27 28 29 29 30 29 26 25 10 7 3 3 1 4 9 6 6 5 7 2 3 2 3 4 2 5 6 6 7 7 7 7 6 3 1 1 2 0 1 1 3 4 3 1 2 4 2 2 4 2 3 6 5 6 4 1 2 1 6 2 2 3 5 4 4 2 6 8 6 6 5 4 4 4 1 5 4 6 5 0 2 0 1 2
27 27 26 27 28 29 29 29 30 28 22 6 5 2 2 2 4 7 4 12 7 9 3 5 3 3 3 2 5 4 4 5 5 5 7 5 0 2 0 4 2 1 0 2 1 1 1 1 2 2 2 0 1 4 6 4 2 3 2 2 3 2 2 6 3 4 8 8 9 6 6 6 2 1 3 2 3 5 1 3 2 4 1 4 7 3 1
27 26 26 27 28 28 29 29 30 28 25 13 1 2 2 4 2 2 7 11 9 4 3 3 1 2 2 1 3 3 3 6 8 5 5 5 1 0 3 3 3 2 1 1 1 5 2 1 8 1 2 4 2 9 7 8 5 2 1 4 2 5 1 2 2 2 0 2 1 2 4 4 3 1 3 4 5 3 4 2 3 4 1 4 2 1 3
26 25 26 27 28 28 28 29 30 29 28 19 2 2 2 3 3 5 7 7 5 3 4 2 5 1 2 2 5 1 3 3 3 3 6 5 7 9 4 11 7 6 5 3 4 5 6 6 1 4 4 4 1 1 7 6 5 3 8 3 3 2 1 3 4 7 6 3 2 2 1 2 3 6 4 4 2 3 5 4 3 3 1 2 2 7 2
27 25 26 27 27 27 28 29 30 31 29 26 2 2 1 1 5 3 7 6 5 6 5 10 7 5 2 1 3 3 3 3 2 10 2 7 2 5 13 8 6 4 3 2 6 7 5 6 6 5 2 5 3 7 7 7 6 9 6 3 4 2 2 0 7 4 5 4 1 1 2 2 1 4 5 3 4 1 5 3 1 4 5 1 2 2 4
27 26 25 26 27 27 28 28 29 30 28 29 4 5 5 5 2 3 1 1 4 8 8 9 8 9 6 4 4 6 8 11 6 4 3 4 9 4 6 14 12 11 4 4 5 7 6 9 4 8 6 4 7 5 6 3 3 3 1 1 4 4 2 1 2 1 2 2 3 4 4 3 2 5 4 5 2 6 4 1 1 3 2 3 1 4 6
27 27 26 26 26 26 26 28 28 29 28 20 5 7 4 3 2 1 5 2 2 3 6 8 7 12 11 1 9 9 10 10 7 4 3 8 9 8 5 6 12 13 11 6 3 6 3 5 3 4 6 3 3 4 5 6 9 7 4 4 1 4 1 1 3 3 4 4 5 7 9 6 7 8 7 3 4 3 5 4 3 7 4 4 8 10 7
26 27 25 25 25 26 26 27 27 28 26 12 11 9 4 5 3 5 3 1 3 6 7 4 8 9 11 5 8 8 8 8 9 11 9 3 5 6 9 6 9 10 12 10 6 2 3 1 1 4 4 6 4 1 2 2 6 5 2 0 3 4 1 3 2 3 2 3 6 8 7 8 5 8 10 8 4 10 5 3 3 8 7 4 7 10 7
25 27 26 25 25 25 25 26 27 26 21 9 7 4 4 2 1 1 3 6 7 6 9 7 7 10 11 8 7 6 10 6 5 10 10 9 4 3 4 4 6 10 11 10 8 4 2 2 2 5 3 3 2 2 2 2 1 4 3 2 2 4 1 3 2 3 1 1 5 4 6 9 9 9 11 12 7 8 5 6 4 2 5 3 9 7 4
26 26 26 26 25 25 24 24 25 24 17 5 3 7 4 1 2 1 1 4 6 3 3 8 7 9 8 8 9 5 7 6 4 3 7 9 8 5 5 3 8 5 11 9 4 6 5 6 7 5 5 5 5 3 3 1 0 0 1 0 1 1 3 2 2 3 2 2 4 5 4 4 5 5 6 5 5 7 6 11 13 7 2 6 6 2 0
26 27 27 25 25 24 24 24 23 22 11 7 5 5 7 7 6 5 3 4 7 8 4 8 8 2 5 12 10 12 10 10 8 6 2 5 6 5 8 8 6 1 3 3 8 4 6 8 7 3 4 4 5 5 4 5 0 1 1 1 0 2 3 1 1 2 1 2 3 3 4 1 2 2 3 1 4 10 15 6 7 11 7 4 3 3 1
25 26 25 25 24 24 24 23 23 23 15 5 1 2 3 3 1 1 3 7 3 5 6 5 5 4 9 9 8 9 10 11 8 3 4 2 3 4 6 5 5 3 2 3 4 7 7 2 1 2 2 3 3 5 7 6 8 2 3 2 3 3 3 2 2 4 2 0 4 3 1 4 2 1 1 6 13 17 16 10 9 8 7 7 6 5 5
25 26 26 25 24 24 23 22 23 22 19 8 4 5 5 4 1 1 2 5 7 7 6 6 8 9 8 11 9 8 7 9 11 8 2 4 6 4 4 3 4 2 1 3 5 3 2 1 3 2 4 5 4 4 5 6 6 8 3 4 4 4 4 3 1 3 2 2 2 2 5 3 4 1 3 1 4 5 12 12 9 7 5 3 5 4 4
23 24 26 24 24 23 22 22 22 22 22 13 6 4 5 4 5 4 2 2 5 5 2 3 12 11 11 10 7 7 11 13 8 7 9 6 6 6 5 6 3 3 2 1 2 2 2 4 1 4 4 5 4 2 4 4 5 5 6 4 5 6 3 4 2 1 5 4 6 5 1 1 3 2 2 2 1 1 2 5 2 3 3 3 3 5 5
23 25 25 24 24 23 22 22 21 21 21 17 4 4 5 6 2 0 0 2 3 4 9 6 6 5 6 7 8 8 7 6 9 7 4 4 4 3 4 10 9 5 4 4 4 3 2 1 1 2 3 2 0 2 2 0 1 4 5 5 0 6 6 4 5 3 5 6 1 1 2 5 2 4 4 2 2 2 3 9 0 4 4 2 3 3 4
23 24 25 24 24 23 23 22 21 20 19 18 5 4 5 5 3 0 1 1 2 6 7 4 3 3 3 4 6 6 4 4 5 4 7 6 6 10 10 12 9 6 5 2 1 2 2 2 0 2 1 1 2 1 2 3 3 1 5 9 9 6 3 5 9 3 4 3 5 3 5 2 2 6 5 6 4 1 4 6 2 3 3 4 1 5 5
23 23 24 25 24 22 22 21 21 21 19 17 6 4 5 8 7 4 2 4 6 4 3 5 4 3 6 6 9 8 5 4 4 3 4 6 5 6 10 12 6 9 8 4 5 2 3 2 1 1 2 1 1 1 2 2 3 6 9 7 10 8 4 4 4 3 3 5 3 2 1 1 1 3 5 6 7 1 5 0 1 2 5 5 4 7 6
23 23 23 23 23 22 21 20 20 20 20 20 8 2 4 6 7 4 4 3 4 4 4 4 5 5 5 2 1 2 2 3 5 1 1 4 2 5 7 7 8 5 5 4 4 4 4 2 3 0 1 1 1 2 1 1 1 2 2 2 4 5 4 5 2 2 2 6 2 2 1 2 1 3 6 8 1 3 2 4 1 1 3 4 4 5 4
22 23 23 23 22 22 21 20 19 19 19 18 9 2 3 5 7 5 3 4 5 4 5 3 2 3 1 2 3 2 1 1 0 2 4 6 3 8 6 4 3 4 7 3 4 3 3 2 2 1 1 4 3 1 1 2 1 1 2 3 5 4 2 2 4 5 1 1 5 2 2 2 3 6 3 4 3 1 5 1 1 3 3 2 3 4 3
21 22 23 23 22 22 21 20 19 18 18 19 8 1 6 5 3 4 3 2 1 2 2 1 2 4 2 4 5 6 5 6 3 5 1 1 6 7 6 5 6 3 6 3 5 2 3 3 2 2 3 2 2 2 2 1 2 3 1 2 4 2 2 2 1 2 2 3 5 3 2 2 2 4 6 7 6 1 0 0 2 1 1 4 3 2 2
21 21 23 23 22 22 21 20 19 18 18 18 9 3 6 6 8 4 1 3 2 3 3 4 1 3 2 3 3 6 5 4 3 3 1 1 4 2 2 0 4 2 3 2 2 2 1 3 4 1 1 1 4 3 2 2 3 9 5 2 3 1 3 1 1 1 2 2 3 2 2 3 6 7 5 1 3 3 1 1 2 1 1 2 4 4 2
19 21 22 22 22 22 21 20 19 18 18 18 12 3 4 7 6 6 3 3 2 2 1 4 2 0 1 2 3 4 7 5 2 2 2 3 5 4 1 0 2 1 0 1 4 3 4 1 1 2 3 3 4 3 4 4 3 4 5 5 3 5 1 0 4 3 2 2 3 4 4 5 5 6 5 4 2 2 1 3 1 3 5 0 3 4 5
19 20 20 21 22 22 20 20 19 18 17 18 10 4 3 7 9 9 3 4 3 1 3 4 3 4 2 2 3 1 4 5 5 4 3 3 2 3 4 3 3 1 1 2 2 2 2 1 1 1 2 2 1 3 6 4 1 3 3 3 3 3 1 1 6 5 8 7 3 1 4 5 4 4 3 4 1 1 2 3 3 2 2 2 2 3 3
18 19 20 21 21 22 20 19 18 17 17 15 7 3 4 4 7 6 5 5 4 1 4 6 6 3 2 4 4 3 4 2 1 2 2 4 3 2 2 1 0 2 1 2 2 1 1 0 2 1 2 1 2 4 3 4 2 0 2 2 2 2 4 4 2 1 2 3 4 3 2 2 5 4 3 3 3 3 2 3 2 0 1 3 3 2 3
17 18 18 20 20 21 20 19 18 17 16 16 10 4 2 4 5 5 3 3 4 4 1 3 3 1 2 2 1 3 1 2 1 2 3 4 7 4 2 2 2 1 1 3 1 5 3 2 3 2 2 1 3 1 1 2 3 1 3 2 2 3 1 5 1 4 4 3 1 2 1 5 3 3 5 5 4 3 2 1 0 0 0 0 1 1 2
17 17 17 17 18 20 20 18 18 17 16 16 9 3 3 3 6 3 5 3 1 1 1 0 2 5 3 5 3 2 2 1 4 5 3 4 4 5 4 0 2 1 1 1 3 3 0 1 1 1 2 2 1 2 1 1 2 1 3 1 1 2 2 1 0 2 1 1 1 2 2 5 1 4 2 1 2 2 3 2 1 1 2 3 2 0 2
16 16 17 17 17 18 19 18 16 16 16 15 7 3 2 3 3 5 3 1 1 1 4 0 3 6 4 4 3 2 0 1 2 4 3 3 1 1 2 1 2 3 5 3 2 2 1 1 2 1 1 1 0 0 1 2 0 1 2 3 2 4 2 0 3 3 2 1 2 2 4 5 7 5 5 4 3 4 3 3 4 4 4 4 4 5 5
17 17 18 17 17 17 17 18 15 15 15 13 6 2 2 1 3 3 4 3 3 2 1 1 3 5 4 2 3 1 1 3 3 3 2 3 3 1 2 1 1 1 0 1 3 3 2 3 2 1 0 1 3 3 2 1 2 5 4 2 0 4 1 2 2 2 1 3 3 1 3 2 2 2 3 3 4 4 5 4 4 4 4 4 5 6 6
17 17 18 17 16 16 16 16 15 13 15 9 4 4 3 1 1 6 5 3 2 2 1 2 2 2 1 2 3 3 2 4 3 3 3 2 3 2 2 0 3 3 2 2 1 1 1 2 2 0 0 3 3 2 2 2 2 1 1 2 2 0 3 6 5 4 1 3 1 2 2 0 0 2 2 3 3 3 4 4 3 4 4 4 5 4 4
17 18 18 17 17 16 15 14 14 13 11 6 3 3 2 2 1 3 5 3 1 1 2 2 2 2 3 1 2 3 2 3 3 2 2 1 1 3 2 0 1 2 2 2 3 0 1 0 2 1 1 1 1 1 1 0 1 1 1 1 1 3 3 2 4 4 1 0 2 2 3 2 1 0 1 2 4 3 3 4 3 4 4 4 4 3 2
19 19 18 18 17 16 15 14 12 11 7 4 2 2 2 1 2 1 6 3 2 1 1 1 3 3 3 2 1 3 2 1 0 0 1 2 2 2 2 1 1 2 1 1 1 1 0 1 1 1 1 0 2 1 1 1 0 0 1 1 2 3 3 3 3 4 4 2 1 1 2 2 1 2 4 4 4 4 4 3 4 4 3 3 3 1 2
19 19 18 18 18 17 16 13 12 8 2 2 2 1 2 2 3 5 5 3 1 2 1 1 2 1 1 1 2 1 1 2 0 1 1 1 2 1 2 1 1 0 2 1 0 1 1 3 1 1 2 1 3 0 1 2 3 2 1 1 0 1 2 3 5 3 3 2 3 3 3 3 1 2 0 1 3 3 4 3 3 3 3 2 2 3 3
19 19 18 18 18 18 17 15 12 8 4 5 7 7 10 13 14 11 4 3 1 0 1 2 1 1 0 2 1 2 1 3 3 1 1 0 2 1 1 2 1 1 2 2 1 1 2 1 0 1 2 1 1 0 1 2 3 3 3 3 2 4 4 3 4 2 2 1 2 1 1 1 1 1 2 3 3 4 3 3 3 4 2 3 3 4 4
19 18 18 17 16 18 17 15 12 7 3 2 2 3 4 7 6 7 1 1 0 0 1 1 0 1 2 3 3 3 1 1 2 0 1 2 1 1 1 0 2 1 1 2 2 0 3 1 1 1 1 1 0 2 1 2 3 4 3 3 2 3 3 4 4 4 2 2 1 2 2 2 1 4 4 4 4 4 4 3 3 3 2 4 5 5 5
19 19 18 17 16 14 15 12 3 3 1 2 2 4 1 4 6 3 1 0 0 1 1 1 1 0 2 4 0 2 1 1 1 1 0 3 1 1 1 1 2 2 3 1 1 1 2 4 5 2 3 0 1 1 2 4 4 4 4 4 2 4 3 3 1 0 1 2 3 2 3 4 6 4 4 2 1 3 3 3 3 3 3 2 4 4 5
20 20 18 17 15 8 2 1 2 1 1 1 3 3 4 5 5 3 2 1 1 1 0 1 0 1 1 0 1 2 0 0 2 1 1 0 2 0 1 1 1 4 1 1 2 0 1 1 2 2 1 2 4 4 6 7 8 7 6 5 4 4 3 3 2 1 4 3 4 3 5 5 6 4 3 2 1 2 2 1 2 2 1 2 3 4 4
20 19 16 9 2 3 2 0 1 1 2 4 7 6 5 3 1 1 1 1 1 1 1 0 1 3 2 2 1 2 3 2 2 2 3 2 1 1 1 1 2 2 1 1 1 1 5 1 1 1 1 3 4 6 8 10 10 8 5 5 4 4 4 3 3 5 3 4 4 2 1 4 4 3 3 2 1 0 1 1 1 1 0 2 3 4 4
19 13 2 3 2 2 1 1 1 5 9 10 7 3 2 2 0 1 1 0 1 1 1 1 2 3 1 1 1 2 1 2 1 1 2 0 1 2 0 1 2 0 2 1 3 3 1 1 1 3 4 3 3 1 0 1 3 4 6 5 4 4 3 3 4 4 3 1 1 1 2 2 2 3 4 3 1 0 1 1 3 2 2 3 3 4 5
9 3 2 2 1 0 1 2 6 14 9 3 1 1 1 0 1 0 1 1 1 1 1 3 4 3 2 1 2 2 1 0 2 2 1 2 1 4 1 2 1 1 1 2 4 1 1 1 1 0 2 2 0 1 1 4 4 4 5 4 5 4 3 3 4 3 5 4 5 4 4 4 4 3 3 3 3 3 2 2 4 3 3 3 3 3 4
5 5 2 2 0 2 4 5 7 6 1 1 1 1 0 0 1 2 0 1 1 2 1 2 4 3 5 5 3 1 1 2 0 2 1 5 0 1 1 0 2 0 1 0 3 2 1 1 1 1 1 2 2 2 3 5 5 4 5 4 4 4 4 3 3 3 4 4 5 4 4 3 4 4 4 4 4 3 4 3 4 4 4 3 3 3 3
2 1 2 0 3 3 4 6 4 0 0 0 1 0 0 1 1 1 0 1 1 2 2 3 0 1 1 2 2 1 2 1 1 2 2 1 2 1 2 1 1 1 1 0 2 1 0 0 1 1 4 5 6 4 4 4 5 5 4 4 5 5 4 3 4 5 5 4 3 3 4 4 4 4 4 4 4 4 5 4 4 6 5 4 3 3 3
2 2 3 3 4 5 4 1 0 1 0 0 1 1 1 2 0 2 1 1 2 1 1 1 0 2 2 3 2 3 1 1 1 1 1 1 1 1 2 1 1 1 1 3 1 0 1 1 1 2 3 4 5 3 4 5 4 4 4 4 5 4 4 5 4 4 5 5 4 4 4 4 4 3 4 4 3 4 4 4 4 4 5 4 3 3 2
12 9 4 2 2 1 0 1 1 1 1 1 2 2 1 1 1 1 2 1 1 1 1 1 1 1 1 2 1 0 2 1 1 0 1 1 1 0 0 1 0 1 2 1 1 0 0 1 1 5 5 5 6 5 5 5 5 5 5 4 5 5 6 5 5 5 5 5 5 5 4 4 4 4 4 4 1 0 1 3 4 3 3 3 3 2 1
3 1 1 0 0 2 1 1 0 1 1 0 1 1 1 1 5 1 1 2 1 1 1 3 3 3 1 1 2 0 1 2 2 1 0 1 0 0 0 0 2 5 0 1 0 1 3 2 4 4 5 3 3 4 5 3 4 4 4 3 4 5 5 4 3 3 3 2 4 3 2 3 4 4 4 3 3 1 2 1 2 2 1 1 2 3 2
1 2 1 1 1 1 1 2 1 1 1 1 1 0 0 1 4 0 2 4 1 3 3 3 3 4 3 1 3 1 1 1 1 2 1 0 1 0 1 2 2 1 1 2 1 2 1 2 4 3 2 5 6 5 4 4 6 8 5 3 4 5 5 5 4 4 4 4 4 3 3 4 4 4 4 4 4 3 4 3 2 2 1 2 2 3 3
2 0 1 3 4 3 1 1 0 1 1 0 0 0 2 4 4 6 5 3 0 1 4 2 2 3 1 1 3 2 0 2 1 1 1 1 1 2 3 0 1 0 1 0 1 3 5 6 5 6 6 6 4 5 5 5 6 4 6 6 6 6 6 6 5 5 5 5 4 4 5 4 4 4 5 5 4 3 3 3 3 3 2 2 1 1 2
1 1 0 0 1 2 0 0 1 1 0 2 1 3 4 5 5 4 3 2 1 1 3 2 2 4 3 1 1 2 1 1 1 1 1 0 1 2 1 1 1 1 1 1 2 3 4 6 5 6 5 5 5 5 4 3 4 5 6 6 6 7 6 6 6 6 6 5 5 5 5 5 5 5 4 4 3 4 4 4 3 3 3 2 1 1 3
1 1 1 1 2 1 0 2 0 3 2 1 3 3 5 3 2 4 3 2 1 0 0 1 1 3 2 2 2 2 2 1 1 2 1 1 0 0 1 0 1 1 1 2 5 5 4 5 6 7 5 7 6 6 4 4 3 4 5 6 7 7 7 7 7 7 6 6 6 6 6 6 6 4 4 4 4 4 4 4 3 3 3 2 3 3 2
1 0 0 1 1 1 2 1 5 6 7 5 3 3 5 6 6 5 6 1 1 2 3 2 2 1 1 1 1 0 1 0 1 2 1 1 1 2 1 1 0 2 3 4 5 5 5 5 5 3 1 0 1 3 5 5 5 6 7 7 8 9 8 8 9 8 6 6 6 7 6 5 4 4 2 3 4 5 5 4 4 4 4 4 4 3 2
1 1 0 0 2 4 5 2 1 6 4 4 4 5 4 4 5 8 3 0 0 1 2 2 2 1 1 0 1 0 1 0 2 0 1 2 2 1 1 2 2 3 3 2 2 5 5 4 3 3 4 4 6 6 6 6 5 4 5 7 7 6 7 8 8 7 7 6 6 7 6 4 4 3 3 6 6 4 4 4 4 4 3 4 4 3 2
0 1 2 3 5 5 0 1 2 5 7 6 4 5 4 5 4 6 2 0 1 2 1 2 2 1 0 0 0 0 2 1 1 2 3 2 1 2 3 4 5 5 6 6 6 6 5 4 4 3 4 7 8 8 8 7 5 5 5 5 5 6 7 7 8 8 7 7 6 7 6 6 5 5 4 4 4 4 4 4 4 4 4 4 4 4 2
1 2 3 3 5 6 6 5 2 6 8 9 7 6 3 5 2 5 2 2 1 2 3 1 1 1 1 2 3 2 0 1 1 1 1 2 2 2 3 5 6 6 6 5 5 4 3 2 2 3 5 6 7 7 6 5 5 5 5 5 5 5 5 5 6 7 7 6 6 6 6 5 4 3 0 3 4 4 5 5 5 4 4 4 4 4 3
Wind_Direction
360 358 355 350 349 346 344 343 340 347 348 359 347 338 359 45 227 277 322 336 143 105 78 333 113 197 227 219 254 250 266 268 281 290 287 292 251 2 318 245 71 339 113 50 64 33 156 165 233 213 137 167 171 118 49 36 28 45 324 25 302 70 70 37 301 311 296 313 156 62 33 39 19 3 23 42 11 231 169 171 184 131 144 89 20 97 248
1 360 354 352 351 348 345 343 343 341 359 330 299 26 313 286 296 316 355 15 47 81 125 248 250 262 295 235 256 219 253 266 284 276 284 262 304 159 196 2 55 243 27 79 72 14 44 293 73 69 119 105 208 48 14 92 36 79 236 126 262 73 295 114 37 356 344 347 355 4 344 49 80 325 348 32 19 39 19 93 32 85 231 170 120 171 222
2 0 355 354 352 350 347 346 344 341 345 357 174 343 286 291 271 268 316 8 23 99 228 197 211 259 246 260 286 281 262 223 226 238 331 324 19 54 28 355 292 34 324 111 113 46 92 239 0 33 153 164 201 151 136 97 62 31 200 133 112 92 180 93 115 142 126 317 309 302 338 314 287 19 9 15 51 23 43 18 348 98 277 84 108 165 249
3 1 358 356 354 352 350 349 347 344 342 355 112 267 26 6 9 311 343 7 358 119 233 312 355 302 332 352 270 254 280 305 240 177 80 5 63 45 35 24 52 22 6 38 47 40 48 77 308 22 1 2 358 315 130 101 115 113 82 67 71 127 68 98 148 148 180 201 211 240 95 27 24 310 14 342 33 43 90 110 82 127 193 63 225 158 155
5 3 359 357 357 355 353 353 350 348 342 345 68 353 80 343 53 351 343 324 11 344 354 6 9 343 277 99 308 346 344 314 4 16 97 3 32 64 36 21 41 336 42 24 44 355 46 13 63 4 13 357 41 18 67 77 90 114 85 79 72 65 64 123 111 127 176 185 187 288 31 28 309 4 326 357 46 38 79 92 189 176 72 318 305 18 83
5 4 1 359 358 357 356 357 353 351 344 339 20 44 5 50 312 77 253 183 295 359 348 342 331 349 20 54 15 26 18 23 20 349 52 33 33 81 20 37 38 27 13 84 56 340 62 46 15 320 14 3 359 29 355 67 351 97 80 50 111 132 124 258 105 32 110 101 54 33 64 65 26 12 3 355 11 69 91 130 203 131 131 170 243 112 91
7 5 3 1 359 358 358 359 356 354 344 339 43 56 338 92 317 342 342 58 306 220 270 316 303 25 2 93 34 31 28 40 24 10 329 32 10 34 86 31 43 44 23 68 95 11 65 356 328 29 332 8 353 24 344 354 9 37 25 18 74 92 0 188 102 99 40 27 47 50 51 29 43 23 13 339 89 98 104 72 34 94 109 149 129 95 82
7 6 3 2 0 360 359 1 360 355 345 331 58 50 34 5 25 329 355 262 303 323 332 342 16 46 4 44 25 40 29 32 26 31 31 42 26 12 78 42 45 53 53 43 76 38 101 118 334 325 4 326 30 43 130 278 331 23 40 63 347 99 269 133 68 69 350 341 47 50 61 70 51 14 10 15 34 57 33 65 28 71 70 69 86 75 53
6 6 5 4 2 1 0 2 3 0 349 37 29 46 33 285 208 260 339 17 4 11 18 9 33 34 1 21 9 44 31 27 28 60 35 54 57 37 73 39 42 28 43 43 38 356 348 289 228 243 286 307 290 34 287 44 2 344 4 28 325 70 194 48 72 76 322 324 59 34 71 84 69 27 2 359 16 60 0 43 324 93 134 104 72 51 20
5 5 5 4 3 1 2 4 7 6 358 65 351 23 320 281 258 319 151 69 351 30 4 28 43 29 345 348 22 23 33 39 33 58 15 37 56 63 87 93 83 29 29 13 336 306 298 290 283 271 258 243 268 230 254 290 90 282 32 229 75 138 113 84 88 77 253 278 87 68 55 42 16 351 324 335 53 116 82 39 31 25 128 74 90 147 254
5 5 4 5 4 2 2 4 5 11 14 31 13 352 351 11 335 345 44 86 359 6 358 40 43 12 341 13 23 25 27 20 44 74 356 3 27 58 71 66 78 100 52 300 282 255 259 264 274 262 258 272 281 298 303 314 263 148 154 61 349 69 96 121 154 121 244 316 47 46 53 43 240 241 315 265 125 89 71 43 15 14 38 90 123 126 318
5 4 4 4 4 3 2 2 4 8 16 356 214 274 294 304 299 84 42 69 358 337 56 53 5 345 28 18 34 32 23 18 9 1 69 9 6 17 52 63 83 31 261 268 302 304 291 304 294 334 12 334 304 283 283 279 292 271 159 140 175 143 112 153 138 100 182 230 37 44 203 229 223 342 299 105 103 92 95 72 43 31 36 51 48 27 12
5 5 4 4 3 3 3 2 2 5 8 359 22 9 308 326 36 43 95 98 40 3 17 354 2 20 12 20 21 12 12 16 21 7 38 49 28 33 33 40 35 301 328 298 324 356 63 340 316 307 303 340 325 316 296 261 253 269 257 143 126 158 147 165 107 126 74 55 67 113 248 182 169 193 53 87 84 107 79 53 24 18 23 47 54 21 357
3 4 3 2 2 2 2 4 2 1 3 5 1 330 313 349 27 20 50 80 48 11 313 347 12 5 8 14 17 8 20 15 353 25 29 357 45 31 4 359 334 277 291 297 49 57 22 34 28 20 326 6 357 4 274 253 239 234 257 236 141 142 117 114 209 108 168 189 148 198 124 124 3 7 351 51 71 338 121 113 28 354 338 37 49 8 2
2 3 3 2 2 1 1 2 2 2 360 359 348 315 340 356 24 128 253 89 95 25 28 36 321 342 9 14 15 24 24 3 16 345 341 15 28 355 9 344 322 331 352 39 356 35 113 91 40 47 331 44 83 259 315 297 314 27 352 318 198 153 171 220 158 250 120 129 123 49 138 199 248 230 262 236 216 231 163 106 108 334 345 352 61 36 353
2 2 1 1 1 360 -0 359 1 2 3 358 10 347 317 338 314 161 125 135 126 38 353 336 350 358 5 12 1 40 10 14 347 332 358 359 4 347 352 349 349 9 4 42 53 53 33 92 225 90 173 208 238 62 311 342 344 341 25 20 47 32 80 140 157 174 85 91 141 192 171 237 207 272 278 297 316 334 134 74 71 305 311 318 38 30 10
1 360 0 0 0 359 358 360 1 2 -0 8 350 328 352 355 8 358 45 31 71 88 286 2 15 37 33 1 8 19 2 24 344 32 339 338 334 343 335 345 340 24 7 66 4 51 21 33 71 141 263 320 27 214 320 13 343 334 347 7 24 34 8 45 71 107 150 144 112 185 102 157 268 266 287 295 305 356 72 146 247 306 335 339 20 44 39
359 359 359 359 358 358 358 360 3 4 2 -0 10 329 316 342 356 1 49 76 101 39 337 3 45 41 42 338 36 302 38 1 2 350 84 289 335 6 337 337 348 342 24 75 355 49 14 45 24 30 87 327 272 36 77 335 7 332 12 335 5 357 349 47 116 134 113 104 86 77 35 314 282 284 306 311 328 75 91 192 232 314 29 25 56 58 48
359 358 358 358 357 357 358 1 5 5 5 4 351 351 330 341 347 28 99 57 78 76 305 337 83 90 121 77 92 54 46 357 27 75 325 350 341 321 290 271 20 359 358 34 41 45 38 346 347 52 73 328 27 135 298 55 277 21 40 44 8 14 32 336 52 30 13 161 99 148 134 241 262 279 325 336 57 73 171 82 68 98 43 34 74 49 22
358 358 357 357 356 356 358 1 4 7 6 5 17 98 265 302 335 14 43 85 87 95 317 350 38 61 7 91 49 36 4 22 47 106 62 331 291 334 36 4 340 47 1 40 39 347 70 355 304 3 29 5 307 243 22 294 26 32 19 46 104 316 53 7 39 316 26 34 94 89 81 328 244 279 18 16 92 126 316 196 6 85 84 42 7 41 326
357 357 357 357 356 356 358 1 5 6 5 5 9 8 344 336 354 356 320 148 109 77 339 298 31 46 54 64 129 135 123 88 48 67 257 227 290 74 81 179 286 341 10 48 66 338 25 340 335 346 276 58 311 55 314 284 28 7 12 89 92 339 96 17 346 238 76 34 64 86 93 11 23 75 116 33 128 177 206 124 21 335 19 24 12 337 329
355 356 356 356 356 355 356 359 3 5 5 4 4 32 20 321 327 340 353 105 98 116 201 255 250 339 345 174 160 143 129 146 156 152 97 28 347 65 137 39 325 39 352 63 39 4 3 286 3 33 7 332 358 55 346 83 27 300 2 43 54 343 108 272 109 28 94 79 88 68 63 78 62 89 111 135 147 134 138 109 107 16 352 356 24 339 337
353 354 354 355 355 355 355 356 1 3 4 5 11 49 355 321 333 334 12 43 341 345 352 5 346 13 5 38 23 154 139 138 124 83 118 109 12 8 61 30 353 316 37 81 142 156 219 103 244 175 27 24 355 337 9 82 148 344 43 359 131 341 261 111 89 96 108 77 47 143 86 75 71 72 118 123 119 87 85 72 43 356 337 1 25 327 310
349 350 351 352 353 354 354 354 356 359 1 6 22 21 339 312 306 347 11 64 91 32 345 8 58 357 329 6 336 9 71 77 149 142 144 123 91 335 328 307 197 24 10 294 203 107 261 140 237 105 104 302 69 66 54 11 27 21 63 347 345 326 9 44 86 212 78 87 357 27 86 78 66 93 127 119 97 54 61 68 78 355 355 9 357 335 323
344 346 347 348 349 351 353 353 353 354 357 3 2 347 301 347 345 13 77 46 351 60 120 318 3 262 281 279 103 48 41 173 135 104 85 83 123 137 166 227 181 99 326 310 45 47 34 54 343 41 88 276 103 349 252 101 310 95 57 279 39 316 346 69 6 58 113 166 185 285 211 124 99 79 47 29 24 36 44 90 176 156 225 189 299 338 341
341 342 343 343 345 348 352 353 351 351 351 354 17 35 354 327 320 10 81 65 104 103 92 321 285 309 355 28 12 284 254 79 64 58 97 156 158 153 170 20 22 23 130 85 84 77 111 39 67 80 91 306 99 129 315 196 196 220 118 229 220 244 53 117 278 98 11 24 323 323 192 197 90 50 60 58 90 79 36 32 45 38 351 327 316 270 291
343 343 342 342 341 343 347 351 350 347 345 346 356 33 359 307 351 45 59 4 76 341 29 5 284 305 0 335 279 341 342 83 64 63 61 81 122 27 87 80 79 353 46 5 15 110 70 80 90 63 158 227 45 193 158 4 21 0 12 291 339 49 34 275 51 34 19 129 296 354 38 316 331 355 3 16 48 60 33 9 10 355 352 342 1 356 11
341 345 346 342 340 340 343 346 348 344 340 340 331 334 243 83 25 43 57 66 104 165 187 256 311 276 313 338 282 330 347 70 91 97 58 48 71 92 91 129 113 90 0 66 359 17 38 34 298 231 140 314 50 321 313 243 52 36 30 333 160 115 175 111 125 146 198 241 237 200 153 202 248 316 340 34 17 31 19 357 345 347 355 18 48 40 23
337 341 342 340 337 338 339 341 344 344 342 345 339 5 51 153 65 44 39 15 88 94 110 255 289 4 39 245 305 345 4 85 97 114 82 34 15 346 11 322 168 166 94 75 111 104 132 231 204 140 179 211 98 278 36 7 43 72 289 302 33 193 146 135 170 156 234 210 178 141 118 121 282 333 13 5 359 41 15 358 13 18 36 55 65 62 41
335 337 337 335 334 333 334 335 340 345 347 353 22 51 40 315 326 54 26 30 51 120 79 47 41 254 285 315 289 303 9 32 61 76 64 38 342 341 303 19 76 142 122 162 153 29 239 206 295 313 313 50 101 185 73 228 90 226 270 284 81 62 80 127 149 119 140 125 120 135 130 154 208 161 99 19 0 25 47 31 25 38 53 70 65 36 13
333 334 333 329 328 327 326 329 334 345 360 18 68 54 43 29 291 270 30 3 10 104 130 122 222 276 343 268 201 270 259 283 14 8 255 248 246 224 270 83 31 105 54 7 63 218 174 335 338 307 336 299 120 107 181 118 97 322 268 122 118 103 82 82 101 114 121 121 120 70 83 36 357 29 8 1 353 16 49 29 17 49 69 70 64 49 354
330 331 328 325 322 321 320 321 328 338 5 65 76 169 179 190 225 317 353 333 21 62 74 35 337 348 251 309 278 260 267 262 82 17 338 52 284 355 316 97 227 191 127 145 198 48 238 215 132 217 148 244 87 100 87 103 137 217 203 141 135 99 94 100 83 73 67 109 83 36 15 335 29 117 238 0 22 33 68 44 27 33 41 54 27 13 353
326 325 321 318 316 316 315 314 322 325 272 246 235 250 267 271 276 284 324 352 59 220 129 89 180 233 16 246 293 337 359 15 10 30 286 316 231 54 305 349 27 48 323 83 298 202 221 142 157 80 263 29 100 156 135 182 207 222 200 168 126 97 97 98 100 88 74 46 115 129 239 214 270 259 112 103 75 61 44 30 28 8 348 22 4 355 340
321 316 313 310 308 308 307 308 318 311 351 29 357 301 259 242 259 275 278 99 148 250 77 117 352 343 268 314 65 283 32 74 268 68 304 295 188 84 238 45 342 115 311 121 255 67 325 57 196 218 353 306 67 80 286 267 213 166 167 153 158 119 113 86 62 56 18 4 33 120 175 201 96 101 72 70 53 33 35 354 14 350 6 25 5 334 331
315 311 306 303 296 293 300 307 6 49 262 273 253 257 254 198 189 201 133 101 62 340 25 311 128 27 348 358 42 274 273 82 327 261 147 271 50 180 274 66 335 51 286 103 36 192 176 227 167 99 246 285 81 210 237 195 181 167 163 152 176 115 62 67 5 299 6 33 82 51 34 94 100 85 100 94 80 67 47 8 23 32 26 352 344 329 328
311 306 302 298 302 302 319 37 86 53 12 286 248 228 211 189 209 227 181 168 136 147 119 250 66 209 154 206 300 273 39 33 267 344 251 214 351 316 110 129 10 258 201 104 209 351 215 233 111 281 243 134 218 194 221 179 174 187 175 169 192 150 166 171 176 85 60 64 75 48 65 92 115 134 137 132 101 68 60 20 2 48 60 342 319 311 313
310 306 308 315 343 59 18 225 248 145 213 233 278 298 281 171 50 74 42 11 328 117 150 164 38 254 170 224 246 281 68 9 330 7 332 31 234 289 49 45 219 267 43 345 342 258 260 31 101 152 255 201 243 221 193 175 170 171 174 170 168 133 124 147 164 120 74 51 52 33 62 127 126 140 139 143 170 108 58 15 76 67 0 301 291 301 304
312 316 17 34 33 42 8 340 332 298 320 315 337 6 356 29 56 334 0 34 266 78 319 82 227 257 304 91 265 255 65 270 63 70 316 265 16 311 46 114 235 272 304 251 247 192 90 47 174 174 259 263 270 297 244 166 145 136 143 151 145 137 143 135 117 100 110 89 34 70 61 84 143 179 164 186 190 184 233 198 168 181 205 246 266 276 294
321 344 34 20 92 286 202 256 300 331 326 290 51 62 321 30 58 338 252 222 40 308 269 136 239 207 148 153 265 294 141 224 8 27 68 278 94 302 26 51 300 62 297 19 302 35 325 319 294 152 281 302 22 156 181 143 131 149 148 157 145 155 135 143 150 142 162 183 190 189 162 173 178 206 193 189 236 244 227 178 191 215 222 228 254 269 273
25 20 355 339 35 245 263 273 323 323 347 14 312 100 282 294 102 272 222 79 309 260 137 228 216 179 179 180 161 268 331 71 0 292 217 301 51 160 268 54 269 81 266 106 253 20 103 281 282 70 295 278 240 217 166 152 142 180 161 168 153 155 144 147 192 194 159 185 173 186 185 186 176 168 184 210 220 236 272 244 213 226 234 239 242 253 260
23 346 3 305 262 293 291 314 326 34 83 20 6 350 61 323 260 203 348 287 196 222 183 177 4 27 338 91 95 196 280 94 186 140 127 231 254 75 53 245 242 59 272 270 279 53 79 1 330 236 240 217 203 211 187 159 166 187 181 161 150 150 142 138 145 154 137 143 171 177 185 190 172 190 209 215 216 224 227 221 215 228 237 250 264 256 238
224 185 233 277 278 274 300 332 90 27 350 175 124 276 222 215 302 350 141 152 250 229 289 118 303 173 224 174 193 139 317 180 128 109 88 346 297 139 227 252 9 110 249 240 216 34 72 241 293 290 267 243 226 215 178 180 201 169 180 170 154 150 130 139 162 178 156 159 180 181 199 182 197 219 231 242 246 237 229 227 230 240 235 246 252 287 271
277 258 224 256 309 310 185 18 285 110 100 347 43 343 333 23 225 191 277 265 279 110 255 85 168 151 332 58 47 350 178 169 118 329 79 221 285 69 101 343 63 326 240 294 55 38 334 240 243 250 248 225 204 198 203 195 191 180 183 180 168 170 152 159 172 185 188 172 178 191 195 200 220 228 235 237 219 297 228 205 209 218 243 255 269 296 293
281 122 116 327 352 286 82 326 282 52 351 108 104 234 290 345 310 345 330 286 292 312 210 141 212 115 192 285 145 279 21 358 46 71 351 275 105 270 36 240 212 238 89 38 27 198 225 214 210 233 247 229 238 219 216 206 165 165 187 209 168 155 160 165 149 133 172 173 166 189 212 218 243 267 265 250 231 203 217 232 235 208 212 81 13 342 317
43 356 22 11 350 265 57 313 310 118 231 258 135 195 194 260 269 233 305 262 17 317 351 63 82 82 137 256 37 358 118 188 317 98 252 84 3 294 122 254 254 30 115 250 300 312 345 278 281 289 246 217 214 211 208 182 166 169 183 175 175 167 161 160 167 156 174 170 191 206 239 250 262 276 266 254 252 201 160 172 206 141 98 83 15 355 342
43 85 12 56 343 310 112 219 293 349 299 121 113 211 325 285 292 289 247 236 217 120 99 108 62 85 94 235 137 211 156 107 70 231 188 75 107 275 242 225 83 50 340 19 277 235 225 242 262 265 239 233 199 202 202 184 188 171 141 171 199 187 187 180 189 179 192 195 212 205 231 243 247 250 260 257 249 217 194 188 190 163 155 83 27 2 337
355 342 74 67 96 274 94 155 254 202 212 321 267 330 302 287 283 282 312 26 88 236 140 222 153 176 150 257 52 348 17 84 131 258 70 50 197 263 40 92 280 186 171 283 252 254 267 262 247 257 243 210 211 210 210 209 183 181 191 183 179 191 191 190 192 194 211 206 209 219 235 241 248 243 240 261 260 200 199 188 198 167 139 159 158 76 41
18 280 71 99 245 229 265 264 332 307 259 213 279 295 278 296 359 340 326 298 208 135 167 38 357 343 7 308 86 199 219 127 81 296 161 205 337 39 357 340 254 243 169 174 236 223 237 256 272 279 241 203 191 191 208 234 244 199 188 186 192 190 192 195 200 208 205 207 215 221 232 239 247 229 201 207 210 214 196 200 187 155 124 112 88 80 60
187 89 111 225 230 268 261 281 359 317 293 309 313 340 343 352 317 290 268 274 160 199 183 132 200 89 262 249 139 51 295 279 107 241 139 84 129 218 161 240 225 295 271 192 225 230 229 254 269 249 246 340 289 215 225 221 208 189 187 191 194 197 193 196 203 207 199 201 209 217 229 236 244 259 197 174 185 213 213 195 154 142 145 136 128 109 72
49 320 261 208 345 305 261 288 347 279 294 325 354 321 312 317 314 297 268 40 179 70 25 19 44 89 241 66 305 336 244 235 166 267 190 222 197 222 119 258 223 201 250 257 234 245 241 243 224 175 176 193 218 223 235 243 233 217 204 198 197 191 193 195 203 208 206 204 208 218 221 230 229 229 189 190 204 193 187 170 160 144 148 147 134 131 133
167 160 237 183 177 226 83 272 242 276 301 287 285 282 295 292 275 284 297 318 34 63 68 197 207 121 318 14 130 327 253 152 90 197 165 207 210 171 189 225 240 215 232 233 235 257 260 247 210 226 223 211 208 214 222 224 225 225 215 201 192 189 197 198 198 202 210 212 212 222 225 224 224 222 218 199 183 162 169 186 188 162 159 161 137 142 157
209 236 243 246 230 241 237 257 282 242 254 266 276 261 245 263 246 267 292 68 52 172 245 231 148 142 115 205 223 202 1 41 210 170 240 261 168 184 217 207 230 230 227 252 266 246 243 249 204 189 207 229 231 227 224 227 233 231 222 221 204 187 191 198 201 202 203 209 210 218 228 226 214 237 155 148 159 151 163 193 218 195 173 177 169 174 173